Weather History for HTDA - April, 2014

Change the Weather History Date:

Thursday, April 17, 2014

  Actual Average (WUND) Record (WUND)
Temperature  
Mean Temperature 80 °F -  
Max Temperature 87 °F 83 °F - (-1)
Min Temperature 73 °F 72 °F - (-1)
Cooling Degree Days 15    
Growing Degree Days 30 (Base 50)    
Moisture  
Dew Point 75 °F    
Average Humidity 84    
Maximum Humidity 100    
Minimum Humidity 70    
Precipitation  
Precipitation 0.04 in 0.28 in - ()
Sea Level Pressure  
Sea Level Pressure 29.90 in    
Wind  
Wind Speed 6 mph ()    
Max Wind Speed 12 mph    
Max Gust Speed -    
Visibility 7.4 miles    
Events Rain    
Averages and records for this station are not official NWS values.
T = Trace of Precipitation, MM = Missing Value Source: Averaged Metar Reports

Daily Weather History Graph

Daily Weather History Graph

Search for Another Location

Airport or City:

Trip Planner

Search our weather history database for the weather conditions in past years. The results will help you decide how hot, cold, wet, or windy it might be!

Date:

Astronomy

Apr. 17, 2014 Rise Set
Actual Time 6:24 AM EAT 6:20 PM EAT
Civil Twilight 6:03 AM EAT 6:42 PM EAT
Nautical Twilight 5:38 AM EAT 7:06 PM EAT
Astronomical Twilight 5:14 AM EAT 7:31 PM EAT
Moon 8:15 PM EAT (4/17) 8:04 AM EAT (4/17)
Length of Visible Light 12h 38m
Length of Day
11h 56m
Waning Gibbous, 95% of the Moon is Illuminated
Apr 17
Waning Gibbous
Apr 22
Last Quarter
Apr 29
New
May 7
First Quarter
May 14
Full

Hourly Weather History & Observations

Time (EAT) Temp. Heat Index Dew Point Humidity Pressure Visibility Wind Dir Wind Speed Gust Speed Precip Events Conditions
8:00 AM 75.2 °F - 73.4 °F 94% 29.92 in 6.2 mi South 5.8 mph - N/A   Mostly Cloudy
9:00 AM 75 °F - - % 29.97 in 4 mi South 4.6 mph - - Rain Rain
9:00 AM 75.2 °F - 75.2 °F 100% 29.95 in 3.7 mi South 5.8 mph - N/A Rain Rain
10:00 AM 77.0 °F - 75.2 °F 94% 29.98 in 5.0 mi South 5.8 mph - N/A   Mostly Cloudy
11:00 AM 84.2 °F 92.3 °F 75.2 °F 74% 29.92 in 6.2 mi South 6.9 mph - N/A   Partly Cloudy
12:00 PM 82 °F - 74 °F 72% 29.95 in 12 mi South 9.2 mph - -   Mostly Cloudy
12:00 PM 82.4 °F 90.9 °F 77.0 °F 84% 29.95 in 6.2 mi South 9.2 mph - N/A   Partly Cloudy
1:00 PM 84.2 °F 92.3 °F 75.2 °F 74% 29.92 in 6.2 mi South 6.9 mph - N/A   Partly Cloudy
2:00 PM 84.2 °F 92.3 °F 75.2 °F 74% 29.86 in 6.2 mi South 9.2 mph - N/A   Partly Cloudy
3:00 PM 79 °F - 74 °F 79% 29.87 in 5 mi North 11.5 mph - -   Mostly Cloudy
3:00 PM 78.8 °F - 73.4 °F 83% 29.86 in 5.0 mi North 11.5 mph - N/A   Partly Cloudy
4:00 PM 82.4 °F 89.5 °F 75.2 °F 79% 29.83 in 6.2 mi West 4.6 mph - N/A   Partly Cloudy
5:00 PM 84.2 °F 90.9 °F 73.4 °F 70% 29.83 in 6.2 mi SE 9.2 mph - N/A   Partly Cloudy
6:00 PM 82 °F - 74 °F 72% 29.86 in 19 mi SE 5.8 mph - -   Partly Cloudy
6:00 PM 82.4 °F 89.5 °F 75.2 °F 79% 29.83 in 6.2 mi SE 5.8 mph - N/A   Partly Cloudy
7:00 PM 78.8 °F - 75.2 °F 89% 29.86 in 6.2 mi SE 5.8 mph - N/A   Partly Cloudy
8:00 PM 77.0 °F - 75.2 °F 94% 29.89 in 6.2 mi SSE 4.6 mph - N/A   Partly Cloudy
9:00 PM 78 °F - 75 °F 88% 29.93 in 19 mi South 3.5 mph - -   Partly Cloudy
9:00 PM 77.0 °F - 75.2 °F 94% 29.92 in 6.2 mi South 3.5 mph - N/A   Partly Cloudy
10:00 PM 77.0 °F - 75.2 °F 94% 29.95 in 6.2 mi Calm Calm - N/A   Partly Cloudy